Location: Asheville, NC
(35.6000°N, 82.5500°W)
Time: 20:53:54
(UTC-05:00)

Vanguard 2 - Pass Details

Date: 07 December 2017
Orbit: 553 x 2939 km, 32.9° (Epoch: 21 January)

Event Time Altitude Azimuth Distance (km) Brightness Sun altitude
Rises 18:32:26 0° 250° (WSW) 3,154 12.6 -15.0°
Reaches altitude 10° 18:35:08 10° 245° (WSW) 2,037 11.1 -15.5°
Maximum altitude 18:39:23 49° 170° (S) 728 7.4 -16.4°
Enters shadow 18:41:11 27° 110° (ESE) 1,063 7.8 -16.7°
